Tracking 20712 objects as of 27-May-2020
HD Live streaming from Space Station
objects crossing your sky now

CZ-4C DEB

Track CZ-4C DEB now!
10-day predictions


NORAD ID: 38295
Int'l Code: 2010-059E
Perigee: 808.7 km
Apogee: 1,209.7 km
Inclination: 98.6 °
Period: 105.2 minutes
Semi major axis: 7380 km
RCS: 0.0013 m2 (small)
Launch date: November 4, 2010
Source: People's Republic of China (PRC)
Launch site: Taiyaun Space Center, China (TSC)

Note: This is SATELLITE DEBRIS
aabbcc
Your satellite tracking list
Your tracking list is empty




NASA's NSSDC Master Catalog

Two Line Element Set (TLE):
1 38295U 10059E   20148.27841616  .00000042  00000-0  73155-4 0  9993
2 38295  98.6440 163.1751 0271684 306.4872 112.2977 13.69297039468402
Source of the keplerian elements: AFSPC